Overview Statistics Trail Chart Weather Telemetry Raw packets
 

This is the latest recevied weather packets stored in our database for station/object KO4YAW. If no packets are shown the sender has not sent any weather packets the latest 10 day(s).

<< 14 15 16 17 18 19 20 >>
Time Temp. Humidity Pressure Rain* Wind** Luminosity Snow
1788330821 20° C 52% 1019 hPa 0 mm - 0 W/m² -
1788329921 20° C 52% 1018.9 hPa 0 mm - 0 W/m² -
1788329021 20.56° C 53% 1018.8 hPa 0 mm - 0 W/m² -
1788328121 21.11° C 52% 1018.6 hPa 0 mm - 0 W/m² -
1788327221 21.67° C 50% 1018.8 hPa 0 mm - 0 W/m² -
1788326321 22.22° C 49% 1018.8 hPa 0 mm - 0 W/m² -
1788325421 22.22° C 47% 1018.8 hPa 0 mm - 0 W/m² -
1788324521 22.78° C 46% 1018.8 hPa 0 mm - 0 W/m² -
1788323621 23.33° C 45% 1018.9 hPa 0 mm - 0 W/m² -
1788322721 23.33° C 43% 1019 hPa 0 mm - 0 W/m² -
1788321821 23.33° C 43% 1018.9 hPa 0 mm - 0 W/m² -
1788320921 22.22° C 47% 1018.9 hPa 0 mm - 0 W/m² -
1788320021 22.78° C 46% 1018.9 hPa 0 mm - 0 W/m² -
1788319121 23.33° C 44% 1018.9 hPa 0 mm - 0 W/m² -
1788318221 23.33° C 44% 1018.9 hPa 0 mm - 0 W/m² -
1788317321 23.33° C 43% 1018.6 hPa 0 mm - 0 W/m² -
1788316421 23.89° C 41% 1018.4 hPa 0 mm - 0 W/m² -
1788315521 24.44° C 39% 1018.5 hPa 0 mm - 0 W/m² -
1788314621 25° C 37% 1018.4 hPa 0 mm - 0 W/m² -
1788313721 25° C 36% 1018.3 hPa 0 mm - 0 W/m² -
1788312821 25.56° C 33% 1018.2 hPa 0 mm - 3 W/m² -
1788311921 26.11° C 32% 1018.2 hPa 0 mm - 9 W/m² -
1788311021 26.67° C 31% 1018 hPa 0 mm - 14 W/m² -
1788310121 27.22° C 31% 1018 hPa 0 mm - 25 W/m² -
1788309221 28.33° C 27% 1018 hPa 0 mm - 35 W/m² -

* Rain since midnight (hover to see other rain measurements)
** Current wind speed in m/s (hover to see current wind gust speed)